Regional Weather Roundup
Issued by NWS

Home | Current Version | Previous Version | Text Only | Print | Product List | Glossary Off
Versions: 1 2 3 4 5 6 7 8 9 10 11 12 13 14 15 16 17 18 19 20 21 22 23 24 25 26 27 28 29 30 31 32 33 34 35 36 37 38 39 40 41 42 43 44 45 46 47 48 49 50

000
ASUS43 KTOP 262359
RWRKS

WEATHER ROUNDUP FOR KANSAS
NATIONAL WEATHER SERVICE GOODLAND KS
600 PM CST FRI DEC 26 2014

NOTE:  "FAIR" INDICATES FEW OR NO CLOUDS BELOW 12,000 FEET WITH NO
SIGNIFICANT WEATHER AND/OR OBSTRUCTIONS TO VISIBILITY.

KSZ001>006-013>018-027>032-041>047-270100-
NORTHWEST KANSAS

CITY           SKY/WX    TMP DP  RH WIND       PRES   REMARKS
GOODLAND       LGT SNOW  20  18  92 N10       29.99S FOG     WCI   9
6HR MIN TEMP:  20; 6HR MAX TEMP:  24; 6HR PCP:  0.03;

HAYS           CLOUDY    28  19  69 N9        30.00F
HILL CITY      LGT SNOW  26  22  84 N16       30.02S FOG     WCI  14
6HR MIN TEMP:  26; 6HR MAX TEMP:  29; 6HR PCP:  0.01;

RUSSELL        LGT SNOW  28  27  96 N10       30.00R FOG     WCI  19
6HR MIN TEMP:  28; 6HR MAX TEMP:  30; 6HR PCP: TRACE;

$$

KSZ061>065-074>080-084>089-270100-
SOUTHWEST KANSAS

CITY           SKY/WX    TMP DP  RH WIND       PRES   REMARKS
DODGE CITY     CLOUDY    27  23  85 N9        30.01R
6HR MIN TEMP:  27; 6HR MAX TEMP:  29; 6HR PCP: TRACE;

ELKHART          N/A     25  19  78 N6          N/A
GARDEN CITY    CLOUDY    25  22  88 N8        30.01R
6HR MIN TEMP:  25; 6HR MAX TEMP:  27; 6HR PCP: TRACE;

GREAT BEND     CLOUDY    28  23  80 N10       30.02R WCI  19
LIBERAL        CLOUDY    28  19  69 N10       30.04R WCI  19
$$

KSZ066>073-081>083-090>101-270100-
SOUTHEAST KANSAS

CITY           SKY/WX    TMP DP  RH WIND       PRES   REMARKS
CHANUTE        CLOUDY    47  39  74 N5        29.93R
6HR MIN TEMP:  47; 6HR MAX TEMP:  57;

COFFEYVILLE    CLOUDY    53  49  86 S8        29.91R
6HR MIN TEMP:  53; 6HR MAX TEMP:  60;

HUTCHINSON     CLOUDY    32  29  88 N10       29.96F FOG     WCI  24
6HR MIN TEMP:  32; 6HR MAX TEMP:  35;

MEDICINE LODGE   N/A     32  30  92 N10       29.99R WCI  24
NEWTON         CLOUDY    34  27  75 N12       29.96S WCI  25
PARSONS        CLOUDY    53  49  86 W5        29.93R
6HR MIN TEMP:  53; 6HR MAX TEMP:  59; 6HR PCP: TRACE;

WICHITA INTL   CLOUDY    36  31  82 N12       29.96R WCI  28
6HR MIN TEMP:  36; 6HR MAX TEMP:  41;

WICHITA JABRA  CLOUDY    35  32  88 N14       29.95R WCI  26
6HR MIN TEMP:  35; 6HR MAX TEMP:  41;

WICHITA MCCONL CLOUDY    36  32  87 N13       29.96R WCI  27
WINFIELD       CLOUDY    41  34  76 N12       29.96R
6HR MIN TEMP:  41; 6HR MAX TEMP:  49;

$$

KSZ007>012-019>026-033>040-048>060-102>105-270100-
NORTHEAST KANSAS

CITY           SKY/WX    TMP DP  RH WIND       PRES   REMARKS
CONCORDIA      CLOUDY    30  29  96 N7        30.01R FOG
6HR MIN TEMP:  30; 6HR MAX TEMP:  32; 6HR PCP: TRACE;

EMPORIA        CLOUDY    38  33  82 NW9       29.96R
6HR MIN TEMP:  38; 6HR MAX TEMP:  44;

LAWRENCE       CLOUDY    39  33  79 N7        29.96R
6HR MIN TEMP:  39; 6HR MAX TEMP:  48;

MANHATTAN      CLOUDY    34  33  96 N7        29.98R
6HR MIN TEMP:  34; 6HR MAX TEMP:  36;

OLATHE IND     CLOUDY    40  35  83 N7        29.93S
6HR MIN TEMP:  40; 6HR MAX TEMP:  53;

OLATHE EXE     CLOUDY    43  36  76 N7        29.92R
6HR MIN TEMP:  43; 6HR MAX TEMP:  54;

SALINA         CLOUDY    33  30  88 N9        30.00R FOG
6HR MIN TEMP:  33; 6HR MAX TEMP:  35;

TOPEKA BILLARD CLOUDY    39  34  82 NW6       29.97R
6HR MIN TEMP:  38; 6HR MAX TEMP:  43;

TOPEKA FORBES  CLOUDY    39  33  79 N8        29.96R
6HR MIN TEMP:  39; 6HR MAX TEMP:  42;

$$


USA.gov is the U.S. government's official web portal to all federal, state and local government web resources and services.